Flag for Turkey Weather past 2 weeks in Samsun, Turkey

Now
68 °F

Scattered clouds.


Feels Like: 68 °F
Forecast: 62 / 78 °F
Wind: No wind

Location: Samsun / Carsamba

Current Time: Jul 6, 2015 at 8:00:10 AM

Latest Report: Jul 6, 2015 at 6:50 AM


Visibility: N/A

Pressure: 30.01 "Hg

Humidity: 94%

Dew point: 66 °F

Location of SamsunLocation

Historic Weather in Samsun — Graph

°F

Samsun temperature yesterday

Maximum temperature yesterday: 79 °F (at 3:50 PM)
Minimum temperature yesterday: 66 °F (at 12:50 AM)
Average temperature yesterday: 71 °F

Past Weeks' High & Low Weather Summary

 TemperatureHumidityPressure
High81 °F (Jun 22, 2:50 PM)100% (Jun 22, 2:50 AM)30.12 "Hg (Jun 22, 2:50 AM)
Low57 °F (Jun 30, 1:50 AM)34% (Jun 29, 11:50 AM)29.74 "Hg (Jun 27, 3:50 PM)
Average70 °F80%29.94 "Hg
* Reported Jun 21 6:50 AM — Jul 6 6:50 AM, Samsun, Weather by CustomWeather, © 2015

Note: Actual official high and low records may vary slightly from our data, if they occured in-between our weather recording intervals... More about our weather records

Advertising

Samsun weather history for previous 24 hours

 ConditionsComfort  
Time TempWeatherWind HumidityBarometerVisibility
6:50 AM
Mon, Jul 6
68 °FScattered clouds.No wind94%30.01 "HgN/A
5:50 AM63 °FPassing clouds.No wind100%30.01 "Hg6 mi
4:50 AM61 °FPassing clouds.No wind100%29.98 "Hg5 mi
3:50 AM63 °FPassing clouds.No wind100%29.98 "Hg5 mi
2:50 AM63 °FPassing clouds.No wind100%29.98 "HgN/A
1:50 AM64 °FPassing clouds.No wind94%30.01 "HgN/A
12:50 AM64 °FPassing clouds.1 mph94%30.01 "Hg4 mi
11:50 PM
Sun, Jul 5
66 °FPassing clouds.No wind94%30.01 "Hg4 mi
10:50 PM66 °FPassing clouds.No wind94%30.01 "HgN/A
9:50 PM66 °FPassing clouds.No wind94%30.01 "HgN/A
8:50 PM68 °FPassing clouds.No wind88%30.01 "HgN/A
7:50 PM73 °FScattered clouds.3 mph74%30.01 "HgN/A
6:50 PM75 °FScattered clouds.6 mph69%30.01 "HgN/A
5:50 PM77 °FScattered clouds.9 mph69%30.01 "HgN/A
4:50 PM79 °FScattered clouds.7 mph61%29.98 "HgN/A
3:50 PM79 °FBroken clouds.7 mph61%29.98 "HgN/A
2:50 PM77 °FBroken clouds.5 mph69%30.01 "HgN/A
1:50 PM77 °FBroken clouds.3 mph69%30.01 "HgN/A
12:50 PM75 °FBroken clouds.5 mph69%30.01 "HgN/A
11:50 AM73 °FBroken clouds.1 mph78%30.01 "HgN/A
10:50 AM72 °FBroken clouds.3 mph83%30.01 "HgN/A
9:50 AM70 °FSprinkles. Partly sunny.6 mph88%30.01 "Hg5 mi
8:50 AM72 °FSprinkles. Broken clouds.5 mph83%30.01 "Hg5 mi
Weather by CustomWeather, © 2015

See weather overviewHow to use our weather pages